Overview Statistics Trail Chart Weather Telemetry Raw packets
 

This is the latest recevied weather packets stored in our database for station/object OK2ZA-6. If no packets are shown the sender has not sent any weather packets the latest 10 day(s).

<< 17 18 19 20 21 22 23 >>
Time Temp. Humidity Pressure Rain* Wind** Luminosity Snow
1788435004 23.33° C 45% 1020 hPa 0 mm - - -
1788434404 23.33° C 45% 1020.1 hPa 0 mm - - -
1788433804 23.33° C 44% 1020.1 hPa 0 mm - - -
1788433204 22.78° C 46% 1020.2 hPa 0 mm - - -
1788432604 23.33° C 47% 1020.2 hPa 0 mm - - -
1788432004 22.78° C 48% 1020.1 hPa 0 mm - - -
1788431404 23.33° C 47% 1020.1 hPa 0 mm - - -
1788430804 22.78° C 48% 1020.1 hPa 0 mm - - -
1788430204 22.78° C 48% 1020.1 hPa 0 mm - - -
1788429604 22.78° C 50% 1020.3 hPa 0 mm - - -
1788429003 22.78° C 50% 1020.5 hPa 0 mm - - -
1788428404 22.78° C 49% 1020.5 hPa 0 mm - - -
1788427804 22.78° C 49% 1020.5 hPa 0 mm - - -
1788427204 22.22° C 51% 1020.6 hPa 0 mm - - -
1788426604 22.78° C 50% 1020.7 hPa 0 mm - - -
1788426004 22.22° C 53% 1020.7 hPa 0 mm - - -
1788425403 21.11° C 56% 1020.8 hPa 0 mm - - -
1788424804 21.11° C 57% 1020.9 hPa 0 mm - - -
1788424204 20.56° C 59% 1021 hPa 0 mm - - -
1788423604 20° C 62% 1021 hPa 0 mm - - -
1788423004 20° C 62% 1021 hPa 0 mm - - -
1788422404 19.44° C 63% 1020.9 hPa 0 mm - - -
1788421803 18.89° C 66% 1020.9 hPa 0 mm - - -
1788421204 18.33° C 67% 1020.8 hPa 0 mm - - -
1788420604 18.33° C 67% 1020.8 hPa 0 mm - - -

* Rain latest hour (hover to see other rain measurements)
** Current wind speed in m/s (hover to see current wind gust speed)